Blaine, MN

5:47 PM CST on February 08, 2016 (GMT -0600)
Anoka County / Blaine Airport

Weather History for KANE - December, 2011

Change the Weather History Date:

Monday, December 5, 2011

  Actual Average Record
Temperature  
Mean Temperature 18 °F -  
Max Temperature 23 °F 32 °F 66 °F (2001)
Min Temperature 14 °F 18 °F -5 °F (2007)
Degree Days  
Heating Degree Days 46    
Moisture  
Dew Point 15 °F    
Average Humidity 83    
Maximum Humidity 86    
Minimum Humidity 79    
Precipitation  
Precipitation 0.00 in - - ()
Sea Level Pressure  
Sea Level Pressure 30.41 in    
Wind  
Wind Speed 6 mph (NW)    
Max Wind Speed 12 mph    
Max Gust Speed -    
Visibility 10 miles    
Events Snow    
Averages and records for this station are not official NWS values.
T = Trace of Precipitation, MM = Missing Value Source: NWS Daily Summary

Daily Weather History Graph

Daily Weather History Graph

Search for Another Location

Airport or City:

Trip Planner

Search our weather history database for the weather conditions in past years. The results will help you decide how hot, cold, wet, or windy it might be!

Date:

Astronomy

Dec. 05, 2011 Rise Set
Actual Time 7:35 AM CST 4:31 PM CST
Civil Twilight 7:02 AM CST 5:04 PM CST
Nautical Twilight 6:25 AM CST 5:41 PM CST
Astronomical Twilight 5:49 AM CST 6:17 PM CST
Moon 1:37 PM CST (12/5) 2:48 AM CST (12/5)
Length of Visible Light 10h 02m
Length of Day
8h 55m
Waxing Gibbous, 80% of the Moon is Illuminated
Dec 5
Waxing Gibbous
Dec 10
Full
Dec 17
Last Quarter
Dec 24
New
Jan 1
First Quarter

Hourly Weather History & Observations

Time (CST) Temp. Windchill Dew Point Humidity Pressure Visibility Wind Dir Wind Speed Gust Speed Precip Events Conditions
12:14 AM 23.0 °F 15.8 °F 17.6 °F 80% 30.34 in 10.0 mi West 5.8 mph - N/A   Overcast
12:34 AM 23.0 °F 15.8 °F 17.6 °F 80% 30.34 in 10.0 mi WNW 5.8 mph - N/A   Overcast
12:54 AM 23.0 °F 17.0 °F 17.6 °F 80% 30.34 in 10.0 mi West 4.6 mph - N/A   Overcast
1:14 AM 23.0 °F 14.7 °F 17.6 °F 80% 30.34 in 10.0 mi West 6.9 mph - N/A   Overcast
1:34 AM 23.0 °F 17.0 °F 17.6 °F 80% 30.34 in 10.0 mi West 4.6 mph - N/A   Overcast
1:54 AM 23.0 °F 13.9 °F 17.6 °F 80% 30.34 in 10.0 mi WNW 8.1 mph - N/A   Overcast
2:14 AM 21.2 °F 12.6 °F 17.6 °F 86% 30.35 in 10.0 mi WNW 6.9 mph - N/A   Overcast
2:34 AM 21.2 °F 14.9 °F 17.6 °F 86% 30.35 in 10.0 mi WNW 4.6 mph - N/A   Overcast
2:53 AM 21.2 °F 14.9 °F 17.6 °F 86% 30.35 in 10.0 mi NW 4.6 mph - N/A   Overcast
3:14 AM 21.2 °F 14.9 °F 17.6 °F 86% 30.35 in 10.0 mi NW 4.6 mph - N/A   Overcast
3:34 AM 21.2 °F 13.6 °F 17.6 °F 86% 30.36 in 10.0 mi WNW 5.8 mph - N/A   Overcast
4:14 AM 21.2 °F 14.9 °F 17.6 °F 86% 30.37 in 10.0 mi WNW 4.6 mph - N/A   Overcast
4:34 AM 21.2 °F 16.4 °F 17.6 °F 86% 30.37 in 10.0 mi WNW 3.5 mph - N/A   Overcast
5:14 AM 21.2 °F 14.9 °F 17.6 °F 86% 30.38 in 10.0 mi NW 4.6 mph - N/A   Overcast
5:34 AM 21.2 °F 14.9 °F 17.6 °F 86% 30.38 in 10.0 mi NW 4.6 mph - N/A   Overcast
6:14 AM 21.2 °F 11.7 °F 17.6 °F 86% 30.40 in 10.0 mi NNW 8.1 mph - N/A   Overcast
6:34 AM 21.2 °F 12.6 °F 15.8 °F 80% 30.40 in 10.0 mi NNW 6.9 mph - N/A   Overcast
6:45 AM 21.2 °F 10.9 °F 15.8 °F 80% 30.41 in 12.0 mi NW 9.2 mph - N/A   Overcast
7:50 AM 19.4 °F 7.2 °F 15.8 °F 86% 30.41 in 12.0 mi NW 11.5 mph - N/A   Overcast
8:55 AM 17.6 °F 5.0 °F 14.0 °F 86% 30.46 in 12.0 mi NW 11.5 mph - N/A   Overcast
9:45 AM 17.6 °F 5.0 °F 12.2 °F 79% 30.47 in 12.0 mi NNW 11.5 mph - N/A Snow Light Snow
10:45 AM 19.4 °F 7.2 °F 14.0 °F 80% 30.47 in 12.0 mi NNW 11.5 mph - N/A Snow Light Snow
11:55 AM 19.4 °F 9.5 °F 15.8 °F 86% 30.47 in 10.0 mi NNW 8.1 mph - N/A   Overcast
12:45 PM 19.4 °F 9.5 °F 15.8 °F 86% 30.46 in 10.0 mi NNW 8.1 mph - N/A   Overcast
1:45 PM 19.4 °F 7.2 °F 15.8 °F 86% 30.44 in 10.0 mi NNW 11.5 mph - N/A   Overcast
2:45 PM 19.4 °F 8.6 °F 15.8 °F 86% 30.44 in 10.0 mi NNW 9.2 mph - N/A   Overcast
5:45 PM 19.4 °F 8.6 °F 15.8 °F 86% 30.48 in 10.0 mi North 9.2 mph - N/A   Overcast
7:45 PM 19.4 °F 11.5 °F 15.8 °F 86% 30.47 in 10.0 mi North 5.8 mph - N/A   Overcast
8:45 PM 19.4 °F 9.5 °F 14.0 °F 80% 30.46 in 10.0 mi North 8.1 mph - N/A   Overcast
9:13 PM 19.4 °F 10.4 °F 14.0 °F 80% 30.47 in 10.0 mi North 6.9 mph - N/A   Overcast
9:34 PM 17.6 °F 7.3 °F 14.0 °F 86% 30.47 in 10.0 mi NNW 8.1 mph - N/A   Overcast
9:54 PM 17.6 °F 7.3 °F 12.2 °F 79% 30.47 in 10.0 mi North 8.1 mph - N/A Snow Light Snow
10:14 PM 17.6 °F 7.3 °F 12.2 °F 79% 30.46 in 10.0 mi North 8.1 mph - N/A Snow Light Snow
10:34 PM 17.6 °F 8.2 °F 12.2 °F 79% 30.46 in 10.0 mi North 6.9 mph - N/A Snow Light Snow
10:54 PM 15.8 °F 8.6 °F 10.4 °F 79% 30.45 in 10.0 mi North 4.6 mph - N/A Snow Light Snow
11:14 PM 15.8 °F - 10.4 °F 79% 30.45 in 10.0 mi Calm Calm - N/A Snow Light Snow
11:34 PM 14.0 °F 6.5 °F 10.4 °F 86% 30.46 in 10.0 mi North 4.6 mph - N/A   Overcast
11:53 PM 14.0 °F 8.2 °F 10.4 °F 86% 30.46 in 10.0 mi North 3.5 mph - N/A   Overcast